Погода в Староалейском

Россия / Алтайский край     51°00′24″N   82°00′23″E
темп.,
°C
ветер,
м/с
пор.,
м/с
влажн.,
%
обл.,
%
осадки,
мм/ч
давл.,
гПа
погр.,
м
14 апреля, ср
ср1401:00−2с25925 0.0 103773
04:00−2ссз239513 0.0 103656
07:00−2ссз119722 0.0 103732
10:000с24915 0.0 1037216
13:00+3ссз238414 0.0 1036316
16:00+4с238083 0.0 1034275
19:00+4всв1188100 0.0 103222
22:00+2юв1182100 0.0 103210
15 апреля, чт
чт1501:00+2ююв118089 0.0 103010
04:00+1юв118261 0.0 102910
07:00+1юв11815 0.0 102910
10:00+6ссз01685 0.0 1028136
13:00+9ссз22604 0.0 1027480
16:00+10ссв236244 0.0 1026628
19:00+10св22715 0.0 1025156
22:00+6ссв22830 0.0 102515
16 апреля, пт
пт1601:00+5св11850 0.0 102410
04:00+4св11850 0.0 102310
07:00+3в11850 0.0 102310
10:00+8вюв11720 0.0 1022216
13:00+13ю12570 0.0 1020734
16:00+15ююз23450 0.0 10181154
19:00+15ю22480 0.0 1016580
22:00+10юв11625 0.0 101610
17 апреля, сб
сб1701:00+9в116699 0.0 101510
04:00+8вюв1171100 0.0 101310
07:00+7в1174100 0.0 101310
10:00+10ссв1265100 0.0 1013131
13:00+14ссв3352100 0.0 1011623
16:00+15сз3445100 0.0 10111365
19:00+13ссз44595 0.0 1012758
22:00+9с227821 0.0 101331
18 апреля, вс
вс1801:00+7с11875 0.0 101510
04:00+5ююв008853 0.0 101410
07:00+5ссв259085 0.1 1016203
10:00+3с2497100 2.4 1017431
13:00+4зюз1492100 5.1 1016517
16:00+5юв218761 1.3 1015448
19:00+6вюв228035 1.3 1014375
22:00+5вюв128771 0.0 101236